Showing default

LEMUR 2 TOMATOKECHUP, 60471

Orbit data source: Space-Track

LEMUR 2 TOMATOKECHUP, 60471 is an American payload satellite in SSO that was launched on Fri, 16 Aug 2024 UTC via an FALCON 9 launch vehicle from the Air Force Western Test Range (AFWTR). Payload-class satellites include a variety of spacecraft equipped with specific instruments for various scientific and technological missions. These include communications satellites like Starlink; space stations such as the ISS; scientific satellites like the Hubble; Earth observation satellites from companies like Planet Labs, Umbra, and HawkEye 360; GPS; miniature CubeSats for education and research; and military/defense satellites.

Loading next visibility...
Identifier
60471, 2024-149D
Orbit
SSO
Country
Flag of USUS
Related business
Manufacturer
Spire/Glasgow
Mission
Operational Commercial Communications
Bus & Motor
CUBESAT 16U, Unknown motor
Mass
22 kg wet, 22 kg dry
Launch date (UTC)
2024-08-16 (1 year ago)
Launch vehicle
FALCON 9
Launch site
Air Force Western Test Range (AFWTR)
Object type
Payload
Rocket body
Debris
Shape & HBR
Box + 4 Pan, 1.4 m
Radar Cross Section
0.326 m², Medium (>0.1 m² and < 1m²)

Expand to show TLE details & history
Last TLE update: 7 hours ago

TLE from 7 hours ago
0 LEMUR 2 TOMATOKECHUP
1 60471U 24149D   25294.93804460  .00014994  00000-0  52399-3 0  9992
2 60471  97.4033  12.1654 0002226  44.9870 315.1551 15.29651706 65665
Epoch: 2025-10-21T22:30Z
TLE epoch observation values (Epoch: 2025-10-21T22:30:47.053Z)
Latitude
0.00004°
Longitude
3.85051°
Altitude
478.874 km
Speed
7.627 km/s
True Right ascension
00h 48m 39s
True Declination
0° 00' 00"
Sunlit
Object was in full shadow at epoch
Visualization orbit readout
Latitude
Unknown
Longitude
Unknown
Altitude
Unknown
Speed
Unknown
Apparent Right ascension
Unknown
Apparent Declination
Unknown
Sunlit
N/A
Visualization observer readout
Local Sidereal Time
00:46:10
Azimuth
Unknown
Elevation
Unknown
Doppler factor
Unknown
Orbital elements
Apogee altitude
475.331 km
Perigee altitude
472.28 km
Semi-major axis
6,851.943 km
Eccentricity
0.00022
Inclination
97.4033°
RAAN
12.1654°
Arg. of periapsis
44.987°
True anomaly
315.13711°
Mean anomaly
315.1551°
Eccentric anomaly
315.1461°
Mean motion
3.82668 °/min
Orbital period
94.08 mins
BSTAR
0.00052399
Loading maneuver chart data...
Computing Atmospheric mass density...
Loading historical data...
Loading historical data...
Loading historical data...
Loading historical data...
Loading historical data...
Loading historical data...
Loading historical data...

Documentation

Showing up to 5 results
|